Regional Weather Roundup
Issued by NWS

Home | Current Version | Previous Version | Graphics & Text | Print | Product List | Glossary On
Versions: 1 2 3 4 5 6 7 8 9 10 11 12 13 14 15 16 17 18 19 20 21 22 23 24 25 26 27 28 29 30 31 32 33 34 35 36 37 38 39 40 41 42 43 44 45 46 47 48 49 50
000
ASUS45 KCYS 170910
RWRWY

WYOMING REGIONAL WEATHER ROUNDUP
NATIONAL WEATHER SERVICE CHEYENNE WY
300 AM MDT WED SEP 17 2014

NOTE:  "FAIR" INDICATES FEW OR NO CLOUDS BELOW 12,000 FEET
WITH NO SIGNIFICANT WEATHER AND/OR OBSTRUCTIONS TO VISIBILITY.

WYZ001-171000-
YELLOWSTONE NATIONAL PARK

CITY           SKY/WX    TMP DP  RH WIND       PRES   REMARKS
LK YELLOWSTONE   N/A     38  35  89 CALM      30.25F
W YELLOWSTONE  NOT AVBL

$$
WYZ002>013-054>058-071-098>099-171000-
NORTHERN WYOMING

CITY           SKY/WX    TMP DP  RH WIND       PRES   REMARKS
JACKSON        PTCLDY    46  43  87 N5        30.17S
CODY           PTCLDY    52  43  71 S5        30.06F
GREYBULL       PTCLDY    61  45  55 N7        30.00R
WORLAND        CLEAR     58  45  62 S7        29.99F
SHERIDAN       MOCLDY    62  45  53 S3        29.95F
BUFFALO        MOCLDY    63  40  42 W3        30.04F
GILLETTE       PTCLDY    58  38  47 CALM      30.01S
HULETT         FAIR      52  36  54 MISG      30.01
NEWCASTLE      FAIR      54  36  50 CALM      30.03

$$
WYZ014>020-022>026-101>103-171000-
CENTRAL WYOMING

CITY           SKY/WX    TMP DP  RH WIND       PRES   REMARKS
BIG PINEY      CLEAR     43  35  73 E8        30.22S
PINEDALE       MOSUNNY   41  36  81 NW6       30.23F
DUBOIS         PTSUNNY   46  41  81 NW13      30.20F
LANDER         CLEAR     57  40  52 NW8       30.08F
RIVERTON       PTCLDY    58  41  53 NW15      30.10S
CASPER         MOCLDY    60  35  39 N3        30.07F
DOUGLAS        MOCLDY    54  40  59 N3        30.05F

$$
WYZ021-027>030-104>119-171000-
SOUTHERN WYOMING

CITY           SKY/WX    TMP DP  RH WIND       PRES   REMARKS
EVANSTON       CLEAR     57  36  45 SE7       30.20F
KEMMERER       SUNNY     46  37  71 N12       30.22F
FORT BRIDGER   FAIR      60  36  41 W9        30.22S
ROCK SPRINGS   CLEAR     58  36  43 CALM      30.18F
DIXON          FAIR      54  40  58 E3        30.21S
RAWLINS        CLEAR     56  35  45 CALM      30.19S
SARATOGA       FAIR      50  37  62 N6        30.22S
LARAMIE        CLEAR     46  34  62 SE6       30.21F
CHEYENNE       CLEAR     57  36  45 W12       30.13F
TORRINGTON     PTCLDY    56  43  61 N10       30.01R
PINE BLUFFS    FAIR      48  37  66 CALM      30.07F

$$


USA.gov is the U.S. government's official web portal to all federal, state and local government web resources and services.